Overview Statistics Trail Chart Weather Telemetry Raw packets
 

This is the latest recevied weather packets stored in our database for station/object KB4RFE. If no packets are shown the sender has not sent any weather packets the latest 10 day(s).

<< 103 104 105 106 107 108 109 >>
Time Temp. Humidity Pressure Rain* Wind** Luminosity Snow
1787851491 30.56° C 78% 1018.9 hPa 0 mm - 898 W/m² -
1787851186 30.56° C 77% 1019 hPa 0 mm - 459 W/m² -
1787850882 30° C 77% 1019 hPa 0 mm - 895 W/m² -
1787850578 29.44° C 79% 1019.1 hPa 0 mm - 915 W/m² -
1787850277 29.44° C 79% 1019.2 hPa 0 mm - 478 W/m² -
1787849973 29.44° C 80% 1019.3 hPa 0 mm - 350 W/m² -
1787849667 28.89° C 80% 1019.2 hPa 0 mm - 566 W/m² -
1787849367 28.89° C 82% 1019.4 hPa 0 mm - 325 W/m² -
1787849061 28.89° C 82% 1019.3 hPa 0 mm - 158 W/m² -
1787848761 28.89° C 81% 1019.4 hPa 0 mm - 61 W/m² -
1787848455 29.44° C 80% 1019.3 hPa 0 mm - 69 W/m² -
1787848150 29.44° C 76% 1019.4 hPa 0 mm - 121 W/m² -
1787847850 29.44° C 81% 1019.4 hPa 0 mm - 776 W/m² -
1787847545 29.44° C 79% 1019.5 hPa 0 mm - 106 W/m² -
1787847240 29.44° C 77% 1019.5 hPa 0 mm - 84 W/m² -
1787846937 29.44° C 76% 1019.4 hPa 0 mm - 736 W/m² -
1787846636 28.89° C 80% 1019.7 hPa 0 mm - 814 W/m² -
1787846331 28.33° C 82% 1019.6 hPa 0 mm - 169 W/m² -
1787846028 28.33° C 82% 1019.5 hPa 0 mm - 112 W/m² -
1787845723 28.89° C 81% 1019.8 hPa 0 mm - 64 W/m² -
1787845422 28.89° C 80% 1019.5 hPa 0 mm - 75 W/m² -
1787845119 29.44° C 80% 1019.7 hPa 0 mm - 156 W/m² -
1787844815 29.44° C 80% 1019.6 hPa 0 mm - 122 W/m² -
1787844513 29.44° C 80% 1019.9 hPa 0 mm - 107 W/m² -
1787844209 30° C 80% 1020 hPa 0 mm - 549 W/m² -

* Rain latest hour (hover to see other rain measurements)
** Current wind speed in m/s (hover to see current wind gust speed)